Regional Weather Roundup
Issued by NWS

Home | Current Version | Previous Version | Text Only | Print | Product List | Glossary Off
Versions: 1 2 3 4 5 6 7 8 9 10 11 12 13 14 15 16 17 18 19 20 21 22 23 24 25 26 27 28 29 30 31 32 33 34 35 36 37 38 39 40 41 42 43 44 45 46 47 48 49 50

000
ASUS43 KBIS 301410
RWRND

NORTH DAKOTA REGIONAL WEATHER ROUNDUP
NATIONAL WEATHER SERVICE BISMARCK ND
900 AM CDT TUE JUN 30 2015

NOTE: "FAIR" INDICATES FEW OR NO CLOUDS BELOW 12,000 FEET WITH NO
SIGNIFICANT WEATHER AND/OR OBSTRUCTIONS TO VISIBILITY.


NDZ001>003-009>011-017-301500-
NORTHWEST NORTH DAKOTA

CITY           SKY/WX    TMP DP  RH WIND       PRES   REMARKS
WILLISTON      CLOUDY    68  63  84 N3        29.94F HAZE
MINOT          CLOUDY    64  61  90 SE10      29.92F FOG
MINOT AFB      DRIZZLE   64  64 100 SE6       29.93S
$$

NDZ018>021-031>035-040>046-301500-
SOUTHWEST NORTH DAKOTA

CITY           SKY/WX    TMP DP  RH WIND       PRES   REMARKS
BISMARCK       CLOUDY    68  63  84 E6        29.94S
DICKINSON      CLOUDY    68  62  81 E6        29.94S
GARRISON         N/A     67  65  93 CALM      29.95F
HETTINGER ARPT CLOUDY    67  59  75 SE15      29.96F
$$

NDZ004>008-012>016-024-026-027-054-301500-
NORTHEAST NORTH DAKOTA

CITY           SKY/WX    TMP DP  RH WIND       PRES   REMARKS
GRAND FORKS    CLOUDY    62  59  90 CALM      29.97R FOG
GRND FRKS AFB  PTSUNNY   62  60  94 NW2       29.97S
DEVILS LAKE    CLOUDY    63  57  82 E5        29.96S
$$

NDZ022-023-025-028>030-036>039-047>053-301500-
SOUTHEAST NORTH DAKOTA

CITY           SKY/WX    TMP DP  RH WIND       PRES   REMARKS
FARGO          MOSUNNY   64  60  87 CALM      29.97R FOG
JAMESTOWN      PTSUNNY   66  61  84 E8        29.94F
$$




USA.gov is the U.S. government's official web portal to all federal, state and local government web resources and services.